Regional Weather Roundup
Issued by NWS Sioux Falls, SD

Home | Current Version | Previous Version | Graphics & Text | Print | Product List | Glossary On
Versions: 1 2 3 4 5 6 7 8 9 10 11 12 13 14 15 16 17 18 19 20 21 22 23 24 25 26 27 28 29 30 31 32 33 34 35 36 37 38 39 40 41 42 43 44 45 46 47 48 49 50
000
ASUS43 KFSD 232210
RWRFSD

WEATHER ROUNDUP FOR SE SOUTH DAKOTA/SW MINNESOTA/NW IOWA
NATIONAL WEATHER SERVICE SIOUX FALLS SD
500 PM CDT WED JUL 23 2014

NOTE: "FAIR" INDICATES FEW OR NO CLOUDS BELOW 12,000 FEET WITH NO
SIGNIFICANT WEATHER AND OR OBSTRUCTIONS TO VISIBILITY.


SDZ038>040-050-052>070-232300-
SOUTHEAST SOUTH DAKOTA

CITY           SKY/WX    TMP DP  RH WIND       PRES   REMARKS
CHAMBERLAIN    MOSUNNY   85  52  31 SE8       30.18F
HURON          SUNNY     81  55  40 E12       30.19F
MADISON        FAIR      77  57  50 E5        30.23F
MITCHELL       SUNNY     83  59  44 SE10      30.19F
SIOUX FALLS    MOSUNNY   80  58  46 E10       30.21F
WINNER         FAIR      88  51  28 SE14G23   30.18F
YANKTON        SUNNY     81  61  50 NE9       30.19F
$$

MNZ071-072-080-081-089-090-097-098-232300-
SOUTHWEST MINNESOTA

CITY           SKY/WX    TMP DP  RH WIND       PRES   REMARKS
FAIRMONT       MOSUNNY   81  55  41 N6        30.21F
JACKSON        SUNNY     79  52  38 N6        30.23F
LUVERNE        SUNNY     81  54  39 E7        30.23F
MARSHALL       SUNNY     79  54  41 N6        30.22F
MONTEVIDEO     SUNNY     84  52  32 NE5       30.23F
PIPESTONE      SUNNY     79  52  38 E6        30.24F
REDWOOD FALLS  MOSUNNY   80  53  39 NE6       30.21F
TRACY          MOSUNNY   80  55  43 NW5       30.23F
WINDOM         SUNNY     79  52  38 CALM      30.23F
WORTHINGTON    SUNNY     77  54  44 N7        30.25F
$$

IAZ001>003-012>014-020>022-031-032-NEZ013-014-SDZ071-232300-
NORTHWEST IOWA

CITY           SKY/WX    TMP DP  RH WIND       PRES   REMARKS
CHEROKEE       SUNNY     80  56  43 NE5       30.19F
DENISON        SUNNY     79  59  50 NE9       30.17F
ESTHERVILLE    PTSUNNY   77  57  50 E6        30.21F
LE MARS        SUNNY     81  59  47 N8G15     30.20F
ORANGE CITY    SUNNY     81  54  39 NE6       30.21F
SHELDON        MOSUNNY   79  59  50 NE5       30.20F
SIOUX CITY     SUNNY     83  57  41 NE7       30.18F
SPENCER        MOSUNNY   83  60  45 VRB5      30.21F
STORM LAKE     SUNNY     79  59  50 CALM      30.21F
$$

ABBREVIATIONS USED IN REMARKS
   TC - TEMPERATURE IN CELSIUS
  WCI - WIND CHILL INDEX
   HX - HEAT INDEX
  VSB - VISIBILITY



USA.gov is the U.S. government's official web portal to all federal, state and local government web resources and services.